Time,TemperatureF,DewpointF,PressureIn,WindDirection,WindDirectionDegrees,WindSpeedMPH,WindSpeedGustMPH,Humidity,HourlyPrecipIn,Conditions,Clouds,dailyrainin,SoftwareType,DateUTC
2013-03-06 00:02:00,37.5,31.0,29.95,WNW,284,0.0,6.0,76,0.00,,,0.00,weatherlink.com 1.10,2013-03-06 06:02:00,
2013-03-06 00:17:00,38.2,31.0,29.95,West,264,3.0,8.0,75,0.00,,,0.00,weatherlink.com 1.10,2013-03-06 06:17:00,
2013-03-06 00:32:00,38.0,31.0,29.96,West,264,3.0,13.0,77,0.00,,,0.00,weatherlink.com 1.10,2013-03-06 06:32:00,
2013-03-06 00:47:00,37.1,28.0,29.99,WNW,303,4.0,26.0,71,0.00,,,0.00,weatherlink.com 1.10,2013-03-06 06:47:00,
2013-03-06 01:02:00,36.2,26.0,29.99,WNW,292,2.0,17.0,67,0.00,,,0.00,weatherlink.com 1.10,2013-03-06 07:02:00,
2013-03-06 01:17:00,35.4,23.0,29.99,NE,34,3.0,14.0,62,0.00,,,0.00,weatherlink.com 1.10,2013-03-06 07:17:00,
2013-03-06 01:32:00,34.8,22.0,29.99,NW,320,2.0,16.0,60,0.00,,,0.00,weatherlink.com 1.10,2013-03-06 07:32:00,
2013-03-06 01:47:00,34.3,22.0,29.99,NNW,328,12.0,13.0,60,0.00,,,0.00,weatherlink.com 1.10,2013-03-06 07:47:00,
2013-03-06 02:02:00,34.1,22.0,29.99,WNW,284,0.0,15.0,61,0.00,,,0.00,weatherlink.com 1.10,2013-03-06 08:02:00,
2013-03-06 02:17:00,33.7,22.0,29.99,NNW,341,2.0,7.0,62,0.00,,,0.00,weatherlink.com 1.10,2013-03-06 08:17:00,
2013-03-06 02:32:00,33.5,22.0,29.99,WNW,300,1.0,10.0,63,0.00,,,0.00,weatherlink.com 1.10,2013-03-06 08:32:00,
2013-03-06 02:47:00,33.2,22.0,30.00,NW,323,0.0,11.0,64,0.00,,,0.00,weatherlink.com 1.10,2013-03-06 08:47:00,
2013-03-06 03:03:00,32.9,22.0,30.00,NW,309,5.0,7.0,64,0.00,,,0.00,weatherlink.com 1.10,2013-03-06 09:03:00,
2013-03-06 03:18:00,33.1,21.0,30.01,NNW,330,2.0,12.0,62,0.00,,,0.00,weatherlink.com 1.10,2013-03-06 09:18:00,
2013-03-06 03:33:00,33.2,22.0,30.00,NW,317,0.0,13.0,64,0.00,,,0.00,weatherlink.com 1.10,2013-03-06 09:33:00,
2013-03-06 03:48:00,32.8,22.0,30.01,WNW,288,1.0,12.0,65,0.00,,,0.00,weatherlink.com 1.10,2013-03-06 09:48:00,
2013-03-06 04:03:00,32.7,22.0,30.01,West,277,1.0,8.0,66,0.00,,,0.00,weatherlink.com 1.10,2013-03-06 10:03:00,
2013-03-06 04:18:00,33.1,22.0,30.02,NW,316,1.0,8.0,65,0.00,,,0.00,weatherlink.com 1.10,2013-03-06 10:18:00,
2013-03-06 04:33:00,33.4,23.0,30.02,NW,321,2.0,7.0,66,0.00,,,0.00,weatherlink.com 1.10,2013-03-06 10:33:00,
2013-03-06 04:48:00,33.8,24.0,30.03,West,267,4.0,6.0,67,0.00,,,0.00,weatherlink.com 1.10,2013-03-06 10:48:00,
2013-03-06 05:03:00,34.1,23.0,30.04,NNW,333,2.0,13.0,64,0.00,,,0.00,weatherlink.com 1.10,2013-03-06 11:03:00,
2013-03-06 05:18:00,34.2,23.0,30.04,WNW,295,5.0,11.0,65,0.00,,,0.00,weatherlink.com 1.10,2013-03-06 11:18:00,
2013-03-06 05:33:00,34.3,24.0,30.03,NNE,16,5.0,14.0,65,0.00,,,0.00,weatherlink.com 1.10,2013-03-06 11:33:00,
2013-03-06 05:48:00,34.3,24.0,30.04,WNW,292,5.0,17.0,65,0.00,,,0.00,weatherlink.com 1.10,2013-03-06 11:48:00,
2013-03-06 06:03:00,34.3,24.0,30.05,NW,307,0.0,11.0,65,0.00,,,0.00,weatherlink.com 1.10,2013-03-06 12:03:00,
2013-03-06 06:18:00,34.3,24.0,30.06,NNW,330,5.0,15.0,66,0.00,,,0.00,weatherlink.com 1.10,2013-03-06 12:18:00,
2013-03-06 06:33:00,34.3,24.0,30.07,North,349,10.0,10.0,67,0.00,,,0.00,weatherlink.com 1.10,2013-03-06 12:33:00,
2013-03-06 06:48:00,34.4,24.0,30.07,NNW,330,4.0,11.0,65,0.00,,,0.00,weatherlink.com 1.10,2013-03-06 12:48:00,
2013-03-06 07:03:00,34.4,24.0,30.08,NW,317,6.0,15.0,65,0.00,,,0.00,weatherlink.com 1.10,2013-03-06 13:03:00,
2013-03-06 07:18:00,34.5,24.0,30.09,NNW,341,1.0,12.0,66,0.00,,,0.00,weatherlink.com 1.10,2013-03-06 13:18:00,
2013-03-06 07:33:00,34.6,24.0,30.09,NNW,332,3.0,15.0,66,0.00,,,0.00,weatherlink.com 1.10,2013-03-06 13:33:00,
2013-03-06 07:48:00,34.7,25.0,30.10,NNE,28,6.0,20.0,67,0.00,,,0.00,weatherlink.com 1.10,2013-03-06 13:48:00,
2013-03-06 08:03:00,34.8,25.0,30.11,North,11,9.0,15.0,67,0.00,,,0.00,weatherlink.com 1.10,2013-03-06 14:03:00,
2013-03-06 08:18:00,34.8,25.0,30.13,West,278,1.0,15.0,68,0.00,,,0.00,weatherlink.com 1.10,2013-03-06 14:18:00,
2013-03-06 08:33:00,35.0,25.0,30.13,NNE,24,1.0,19.0,68,0.00,,,0.00,weatherlink.com 1.10,2013-03-06 14:33:00,
2013-03-06 08:48:00,35.3,26.0,30.14,North,355,6.0,15.0,69,0.00,,,0.00,weatherlink.com 1.10,2013-03-06 14:48:00,
2013-03-06 09:03:00,35.4,26.0,30.13,NW,319,1.0,10.0,68,0.00,,,0.00,weatherlink.com 1.10,2013-03-06 15:03:00,
2013-03-06 09:18:00,36.8,26.0,30.14,NW,307,15.0,15.0,65,0.00,,,0.00,weatherlink.com 1.10,2013-03-06 15:18:00,
2013-03-06 09:33:00,36.3,25.0,30.14,NNW,342,1.0,17.0,65,0.00,,,0.00,weatherlink.com 1.10,2013-03-06 15:33:00,
2013-03-06 09:48:00,36.5,25.0,30.14,NW,317,1.0,12.0,64,0.00,,,0.00,weatherlink.com 1.10,2013-03-06 15:48:00,
2013-03-06 10:03:00,36.7,26.0,30.15,North,5,2.0,10.0,66,0.00,,,0.00,weatherlink.com 1.10,2013-03-06 16:03:00,
2013-03-06 10:18:00,36.9,26.0,30.15,WNW,284,1.0,9.0,66,0.00,,,0.00,weatherlink.com 1.10,2013-03-06 16:18:00,
2013-03-06 10:33:00,37.0,26.0,30.16,WNW,290,7.0,14.0,65,0.00,,,0.00,weatherlink.com 1.10,2013-03-06 16:33:00,
2013-03-06 10:48:00,37.4,27.0,30.15,ENE,72,0.0,10.0,66,0.00,,,0.00,weatherlink.com 1.10,2013-03-06 16:48:00,
2013-03-06 11:03:00,37.7,27.0,30.16,NNW,331,6.0,18.0,65,0.00,,,0.00,weatherlink.com 1.10,2013-03-06 17:03:00,
2013-03-06 11:18:00,37.5,26.0,30.16,NNE,14,3.0,22.0,63,0.00,,,0.00,weatherlink.com 1.10,2013-03-06 17:18:00,
2013-03-06 11:34:00,39.3,28.0,30.15,WNW,295,3.0,17.0,64,0.00,,,0.00,weatherlink.com 1.10,2013-03-06 17:34:00,
2013-03-06 11:49:00,39.2,27.0,30.17,NW,315,12.0,12.0,62,0.00,,,0.00,weatherlink.com 1.10,2013-03-06 17:49:00,
2013-03-06 12:04:00,38.5,27.0,30.17,South,179,0.0,14.0,63,0.00,,,0.00,weatherlink.com 1.10,2013-03-06 18:04:00,
2013-03-06 12:19:00,38.7,27.0,30.17,NNW,327,3.0,11.0,64,0.00,,,0.00,weatherlink.com 1.10,2013-03-06 18:19:00,
2013-03-06 12:34:00,39.6,28.0,30.16,NW,325,19.0,19.0,63,0.00,,,0.00,weatherlink.com 1.10,2013-03-06 18:34:00,
2013-03-06 12:49:00,39.9,29.0,30.16,NW,320,1.0,14.0,64,0.00,,,0.00,weatherlink.com 1.10,2013-03-06 18:49:00,
2013-03-06 13:04:00,40.1,28.0,30.16,NNW,344,7.0,16.0,62,0.00,,,0.00,weatherlink.com 1.10,2013-03-06 19:04:00,
2013-03-06 13:19:00,40.4,28.0,30.16,ENE,75,3.0,9.0,62,0.00,,,0.00,weatherlink.com 1.10,2013-03-06 19:19:00,
2013-03-06 13:34:00,41.2,29.0,30.15,NW,313,1.0,11.0,62,0.00,,,0.00,weatherlink.com 1.10,2013-03-06 19:34:00,
2013-03-06 13:49:00,42.0,29.0,30.15,North,5,3.0,13.0,61,0.00,,,0.00,weatherlink.com 1.10,2013-03-06 19:49:00,
2013-03-06 14:04:00,41.9,29.0,30.16,NW,322,4.0,10.0,60,0.00,,,0.00,weatherlink.com 1.10,2013-03-06 20:04:00,
2013-03-06 14:19:00,41.7,29.0,30.16,NE,36,0.0,12.0,62,0.00,,,0.00,weatherlink.com 1.10,2013-03-06 20:19:00,
2013-03-06 14:34:00,42.3,29.0,30.16,NW,313,2.0,12.0,59,0.00,,,0.00,weatherlink.com 1.10,2013-03-06 20:34:00,
2013-03-06 14:49:00,42.4,29.0,30.16,West,273,3.0,11.0,60,0.00,,,0.00,weatherlink.com 1.10,2013-03-06 20:49:00,
2013-03-06 15:04:00,42.6,30.0,30.16,NNW,343,6.0,14.0,62,0.00,,,0.00,weatherlink.com 1.10,2013-03-06 21:04:00,
2013-03-06 15:19:00,42.6,30.0,30.17,NW,311,4.0,11.0,61,0.00,,,0.00,weatherlink.com 1.10,2013-03-06 21:19:00,
2013-03-06 15:34:00,42.3,30.0,30.17,North,355,4.0,15.0,62,0.00,,,0.00,weatherlink.com 1.10,2013-03-06 21:34:00,
2013-03-06 15:49:00,42.1,31.0,30.17,North,9,1.0,19.0,64,0.00,,,0.00,weatherlink.com 1.10,2013-03-06 21:49:00,
2013-03-06 16:04:00,42.4,31.0,30.17,WNW,282,1.0,11.0,65,0.00,,,0.00,weatherlink.com 1.10,2013-03-06 22:04:00,
2013-03-06 16:19:00,42.2,30.0,30.17,NW,325,5.0,11.0,63,0.00,,,0.00,weatherlink.com 1.10,2013-03-06 22:19:00,
2013-03-06 16:34:00,42.2,30.0,30.18,WNW,286,2.0,11.0,63,0.00,,,0.00,weatherlink.com 1.10,2013-03-06 22:34:00,
2013-03-06 16:49:00,42.0,31.0,30.18,NNW,332,8.0,13.0,64,0.00,,,0.00,weatherlink.com 1.10,2013-03-06 22:49:00,
2013-03-06 17:04:00,41.9,30.0,30.17,ESE,119,0.0,11.0,64,0.00,,,0.00,weatherlink.com 1.10,2013-03-06 23:04:00,
2013-03-06 17:19:00,41.5,30.0,30.18,NW,316,1.0,8.0,65,0.00,,,0.00,weatherlink.com 1.10,2013-03-06 23:19:00,
2013-03-06 17:34:00,41.1,30.0,30.18,NNW,347,5.0,10.0,66,0.00,,,0.00,weatherlink.com 1.10,2013-03-06 23:34:00,
2013-03-06 17:49:00,40.9,31.0,30.18,NNW,335,2.0,12.0,67,0.00,,,0.00,weatherlink.com 1.10,2013-03-06 23:49:00,
2013-03-06 18:04:00,40.5,30.0,30.18,NNW,330,4.0,11.0,67,0.00,,,0.00,weatherlink.com 1.10,2013-03-07 00:04:00,
2013-03-06 18:19:00,40.3,30.0,30.18,NNE,13,5.0,10.0,67,0.00,,,0.00,weatherlink.com 1.10,2013-03-07 00:19:00,
2013-03-06 18:34:00,39.8,30.0,30.19,NNW,342,1.0,9.0,68,0.00,,,0.00,weatherlink.com 1.10,2013-03-07 00:34:00,
2013-03-06 18:49:00,39.9,30.0,30.18,North,355,0.0,6.0,69,0.00,,,0.00,weatherlink.com 1.10,2013-03-07 00:49:00,
2013-03-06 19:04:00,39.3,31.0,30.19,NNW,333,3.0,3.0,71,0.00,,,0.00,weatherlink.com 1.10,2013-03-07 01:04:00,
2013-03-06 19:19:00,38.8,30.0,30.18,NNW,340,2.0,8.0,70,0.00,,,0.00,weatherlink.com 1.10,2013-03-07 01:19:00,
2013-03-06 19:34:00,37.9,31.0,30.18,NW,325,1.0,2.0,75,0.00,,,0.00,weatherlink.com 1.10,2013-03-07 01:34:00,
2013-03-06 19:49:00,37.2,29.0,30.19,NW,324,2.0,5.0,73,0.00,,,0.00,weatherlink.com 1.10,2013-03-07 01:49:00,
2013-03-06 20:04:00,36.7,30.0,30.19,North,355,0.0,1.0,76,0.00,,,0.00,weatherlink.com 1.10,2013-03-07 02:04:00,
2013-03-06 20:19:00,35.7,29.0,30.20,North,5,0.0,2.0,78,0.00,,,0.00,weatherlink.com 1.10,2013-03-07 02:19:00,
2013-03-06 20:34:00,35.3,29.0,30.20,NNW,342,0.0,9.0,77,0.00,,,0.00,weatherlink.com 1.10,2013-03-07 02:34:00,
2013-03-06 20:49:00,36.5,29.0,30.21,North,5,0.0,5.0,75,0.00,,,0.00,weatherlink.com 1.10,2013-03-07 02:49:00,
2013-03-06 21:04:00,35.8,29.0,30.20,ENE,74,0.0,9.0,76,0.00,,,0.00,weatherlink.com 1.10,2013-03-07 03:04:00,
2013-03-06 21:19:00,35.8,28.0,30.20,North,355,0.0,6.0,74,0.00,,,0.00,weatherlink.com 1.10,2013-03-07 03:19:00,
2013-03-06 21:34:00,35.6,28.0,30.21,NE,45,0.0,4.0,74,0.00,,,0.00,weatherlink.com 1.10,2013-03-07 03:34:00,
2013-03-06 21:49:00,35.3,28.0,30.21,NNW,336,0.0,7.0,74,0.00,,,0.00,weatherlink.com 1.10,2013-03-07 03:49:00,
2013-03-06 22:04:00,34.8,28.0,30.21,North,360,0.0,2.0,77,0.00,,,0.00,weatherlink.com 1.10,2013-03-07 04:04:00,
2013-03-06 22:19:00,33.6,28.0,30.22,NNW,337,0.0,0.0,79,0.00,,,0.00,weatherlink.com 1.10,2013-03-07 04:19:00,
2013-03-06 22:34:00,32.3,27.0,30.22,NNW,337,0.0,0.0,82,0.00,,,0.00,weatherlink.com 1.10,2013-03-07 04:34:00,
2013-03-06 22:49:00,31.0,26.0,30.21,NNW,344,0.0,1.0,83,0.00,,,0.00,weatherlink.com 1.10,2013-03-07 04:49:00,
2013-03-06 23:04:00,30.3,26.0,30.22,NW,317,0.0,2.0,85,0.00,,,0.00,weatherlink.com 1.10,2013-03-07 05:04:00,
2013-03-06 23:19:00,30.0,26.0,30.21,NW,315,0.0,0.0,86,0.00,,,0.00,weatherlink.com 1.10,2013-03-07 05:19:00,
2013-03-06 23:34:00,29.8,26.0,30.22,NW,315,0.0,0.0,86,0.00,,,0.00,weatherlink.com 1.10,2013-03-07 05:34:00,
2013-03-06 23:49:00,29.5,26.0,30.21,NW,315,0.0,0.0,87,0.00,,,0.00,weatherlink.com 1.10,2013-03-07 05:49:00,